TimePDT,TemperatureF,Dew PointF,Humidity,Sea Level PressureIn,VisibilityMPH,Wind Direction,Wind SpeedMPH,Gust SpeedMPH,PrecipitationIn,Events,Conditions,WindDirDegrees,DateUTC
12:55 AM,45.0,30.0,56,29.90,10.0,NE,6.9,-,N/A,,Partly Cloudy,50,2013-03-27 07:55:00
1:55 AM,43.0,30.0,60,29.89,10.0,Calm,Calm,-,N/A,,Partly Cloudy,0,2013-03-27 08:55:00
2:55 AM,41.0,30.0,65,29.90,10.0,SE,3.5,-,N/A,,Clear,130,2013-03-27 09:55:00
3:55 AM,41.0,30.0,65,29.89,10.0,Calm,Calm,-,N/A,,Clear,0,2013-03-27 10:55:00
4:55 AM,39.0,28.9,67,29.91,10.0,Calm,Calm,-,N/A,,Clear,0,2013-03-27 11:55:00
5:55 AM,37.9,28.9,70,29.92,10.0,Calm,Calm,-,N/A,,Partly Cloudy,0,2013-03-27 12:55:00
6:55 AM,36.0,28.0,73,29.94,10.0,Calm,Calm,-,N/A,,Scattered Clouds,0,2013-03-27 13:55:00
7:55 AM,39.9,28.9,65,29.95,10.0,Calm,Calm,-,N/A,,Scattered Clouds,0,2013-03-27 14:55:00
8:55 AM,43.0,30.9,62,29.95,10.0,Calm,Calm,-,N/A,,Mostly Cloudy,0,2013-03-27 15:55:00
9:55 AM,48.9,30.9,50,29.94,10.0,Calm,Calm,-,N/A,,Scattered Clouds,0,2013-03-27 16:55:00
10:55 AM,53.1,30.9,43,29.93,10.0,Calm,Calm,-,N/A,,Mostly Cloudy,0,2013-03-27 17:55:00
11:55 AM,57.0,30.0,36,29.90,10.0,NNW,4.6,-,N/A,,Mostly Cloudy,330,2013-03-27 18:55:00
12:55 PM,61.0,28.9,30,29.88,10.0,Calm,Calm,-,N/A,,Mostly Cloudy,0,2013-03-27 19:55:00
1:55 PM,64.0,28.0,26,29.86,10.0,WNW,9.2,-,N/A,,Mostly Cloudy,300,2013-03-27 20:55:00
2:55 PM,64.0,28.0,26,29.84,10.0,SSE,9.2,-,N/A,,Mostly Cloudy,150,2013-03-27 21:55:00
3:55 PM,64.0,28.0,26,29.83,10.0,WNW,18.4,24.2,N/A,,Mostly Cloudy,290,2013-03-27 22:55:00
4:55 PM,64.0,28.9,27,29.83,10.0,WNW,23.0,28.8,N/A,,Mostly Cloudy,300,2013-03-27 23:55:00
5:55 PM,62.1,32.0,32,29.85,10.0,WNW,21.9,-,N/A,,Mostly Cloudy,300,2013-03-28 00:55:00
6:55 PM,57.0,34.0,42,29.88,10.0,WNW,19.6,29.9,N/A,,Mostly Cloudy,290,2013-03-28 01:55:00
7:55 PM,54.0,34.0,47,29.91,10.0,WNW,15.0,26.5,N/A,,Scattered Clouds,290,2013-03-28 02:55:00
8:55 PM,53.1,35.1,50,29.92,10.0,WNW,12.7,-,N/A,,Scattered Clouds,300,2013-03-28 03:55:00
9:55 PM,52.0,34.0,50,29.94,10.0,ENE,4.6,-,N/A,,Mostly Cloudy,60,2013-03-28 04:55:00
10:55 PM,52.0,34.0,50,29.93,10.0,Calm,Calm,-,N/A,,Mostly Cloudy,0,2013-03-28 05:55:00
11:55 PM,51.1,34.0,52,29.93,10.0,Calm,Calm,-,N/A,,Mostly Cloudy,0,2013-03-28 06:55:00